Time,TemperatureF,DewpointF,PressureIn,WindDirection,WindDirectionDegrees,WindSpeedMPH,WindSpeedGustMPH,Humidity,HourlyPrecipIn,Conditions,Clouds,dailyrainin,SoftwareType,DateUTC
2013-02-14 00:00:00,33.4,28.5,29.61,SSW,193,10.2,-999.0,81,0.00,,,0.00,SSEC-RIG,2013-02-14 06:00:00,
2013-02-14 00:05:00,33.4,28.6,29.61,SSW,194,10.0,-999.0,81,0.00,,,0.00,SSEC-RIG,2013-02-14 06:05:00,
2013-02-14 00:10:00,33.4,28.6,29.61,SSW,197,9.9,-999.0,81,0.00,,,0.00,SSEC-RIG,2013-02-14 06:10:00,
2013-02-14 00:15:00,33.5,28.7,29.61,SSW,199,10.0,-999.0,82,0.00,,,0.00,SSEC-RIG,2013-02-14 06:15:00,
2013-02-14 00:20:00,33.4,28.8,29.61,SSW,198,10.0,-999.0,82,0.00,,,0.00,SSEC-RIG,2013-02-14 06:20:00,
2013-02-14 00:25:00,33.4,29.0,29.61,SSW,195,10.8,-999.0,83,0.00,,,0.00,SSEC-RIG,2013-02-14 06:25:00,
2013-02-14 00:30:00,33.4,29.1,29.60,SSW,193,10.0,-999.0,83,0.00,,,0.00,SSEC-RIG,2013-02-14 06:30:00,
2013-02-14 00:35:00,33.4,29.3,29.60,SSW,195,10.3,-999.0,84,0.00,,,0.00,SSEC-RIG,2013-02-14 06:35:00,
2013-02-14 00:45:00,33.4,29.7,29.60,South,187,10.0,-999.0,85,0.00,,,0.00,SSEC-RIG,2013-02-14 06:45:00,
2013-02-14 00:50:00,33.6,29.9,29.59,South,183,10.1,-999.0,85,0.00,,,0.00,SSEC-RIG,2013-02-14 06:50:00,
2013-02-14 00:55:00,33.7,30.0,29.59,South,181,10.7,-999.0,85,0.00,,,0.00,SSEC-RIG,2013-02-14 06:55:00,
2013-02-14 01:00:00,33.7,30.1,29.59,South,181,10.6,-999.0,85,0.00,,,0.00,SSEC-RIG,2013-02-14 07:00:00,
2013-02-14 01:05:00,33.7,30.2,29.58,South,181,9.1,-999.0,86,0.00,,,0.00,SSEC-RIG,2013-02-14 07:05:00,
2013-02-14 01:10:00,33.6,30.3,29.58,South,182,9.9,-999.0,86,0.00,,,0.00,SSEC-RIG,2013-02-14 07:10:00,
2013-02-14 01:15:00,33.6,30.3,29.58,South,179,10.3,-999.0,86,0.00,,,0.00,SSEC-RIG,2013-02-14 07:15:00,
2013-02-14 01:20:00,33.6,30.4,29.58,South,180,8.3,-999.0,87,0.00,,,0.00,SSEC-RIG,2013-02-14 07:20:00,
2013-02-14 01:25:00,33.6,30.4,29.57,South,175,8.7,-999.0,87,0.00,,,0.00,SSEC-RIG,2013-02-14 07:25:00,
2013-02-14 01:30:00,33.7,30.4,29.57,South,175,10.8,-999.0,87,0.00,,,0.00,SSEC-RIG,2013-02-14 07:30:00,
2013-02-14 01:35:00,33.8,30.5,29.57,South,183,8.9,-999.0,87,0.00,,,0.00,SSEC-RIG,2013-02-14 07:35:00,
2013-02-14 01:40:00,33.7,30.5,29.56,South,173,8.5,-999.0,87,0.00,,,0.00,SSEC-RIG,2013-02-14 07:40:00,
2013-02-14 01:45:00,33.7,30.5,29.56,South,174,10.4,-999.0,87,0.00,,,0.00,SSEC-RIG,2013-02-14 07:45:00,
2013-02-14 01:50:00,33.5,30.5,29.56,South,170,10.7,-999.0,88,0.00,,,0.00,SSEC-RIG,2013-02-14 07:50:00,
2013-02-14 01:55:00,33.5,30.6,29.56,South,169,11.1,-999.0,88,0.00,,,0.00,SSEC-RIG,2013-02-14 07:55:00,
2013-02-14 02:00:00,33.5,30.6,29.56,South,173,11.7,-999.0,88,0.00,,,0.00,SSEC-RIG,2013-02-14 08:00:00,
2013-02-14 02:05:00,33.5,30.7,29.55,South,170,11.7,-999.0,88,0.00,,,0.00,SSEC-RIG,2013-02-14 08:05:00,
2013-02-14 02:10:00,33.6,30.7,29.55,South,174,12.6,-999.0,88,0.00,,,0.00,SSEC-RIG,2013-02-14 08:10:00,
2013-02-14 02:15:00,33.6,30.7,29.55,South,179,11.0,-999.0,88,0.00,,,0.00,SSEC-RIG,2013-02-14 08:15:00,
2013-02-14 02:20:00,33.7,30.7,29.55,South,184,10.7,-999.0,87,0.00,,,0.00,SSEC-RIG,2013-02-14 08:20:00,
2013-02-14 02:25:00,33.7,30.6,29.55,SSW,192,12.2,-999.0,87,0.00,,,0.00,SSEC-RIG,2013-02-14 08:25:00,
2013-02-14 02:30:00,33.9,30.6,29.55,South,190,13.0,-999.0,87,0.00,,,0.00,SSEC-RIG,2013-02-14 08:30:00,
2013-02-14 02:35:00,34.0,30.5,29.54,SSW,192,12.1,-999.0,86,0.00,,,0.00,SSEC-RIG,2013-02-14 08:35:00,
2013-02-14 02:40:00,34.1,30.4,29.54,SSW,194,11.7,16.1,85,0.00,,,0.00,SSEC-RIG,2013-02-14 08:40:00,
2013-02-14 02:45:00,34.3,30.3,29.54,SSW,196,13.2,16.2,84,0.00,,,0.00,SSEC-RIG,2013-02-14 08:45:00,
2013-02-14 02:50:00,34.6,30.2,29.54,SSW,200,14.2,18.6,83,0.00,,,0.00,SSEC-RIG,2013-02-14 08:50:00,
2013-02-14 02:55:00,34.7,30.0,29.53,SSW,197,13.4,18.0,82,0.00,,,0.00,SSEC-RIG,2013-02-14 08:55:00,
2013-02-14 03:00:00,34.8,29.9,29.53,SSW,196,13.0,19.2,81,0.00,,,0.00,SSEC-RIG,2013-02-14 09:00:00,
2013-02-14 03:05:00,34.7,29.8,29.53,SSW,201,12.5,16.4,81,0.00,,,0.00,SSEC-RIG,2013-02-14 09:05:00,
2013-02-14 03:10:00,34.7,29.7,29.53,SSW,200,11.7,16.3,81,0.00,,,0.00,SSEC-RIG,2013-02-14 09:10:00,
2013-02-14 03:15:00,34.7,29.6,29.53,SSW,206,13.4,17.6,80,0.00,,,0.00,SSEC-RIG,2013-02-14 09:15:00,
2013-02-14 03:20:00,34.6,29.6,29.53,SSW,210,12.4,16.0,81,0.00,,,0.00,SSEC-RIG,2013-02-14 09:20:00,
2013-02-14 03:25:00,34.5,29.5,29.53,SSW,211,12.1,-999.0,81,0.00,,,0.00,SSEC-RIG,2013-02-14 09:25:00,
2013-02-14 03:30:00,34.5,29.4,29.52,SSW,211,12.5,-999.0,81,0.00,,,0.00,SSEC-RIG,2013-02-14 09:30:00,
2013-02-14 03:35:00,34.5,29.4,29.52,SSW,209,12.5,-999.0,80,0.00,,,0.00,SSEC-RIG,2013-02-14 09:35:00,
2013-02-14 03:40:00,34.5,29.3,29.52,SSW,206,12.2,-999.0,80,0.00,,,0.00,SSEC-RIG,2013-02-14 09:40:00,
2013-02-14 03:45:00,34.5,29.2,29.52,SSW,204,11.4,-999.0,80,0.00,,,0.00,SSEC-RIG,2013-02-14 09:45:00,
2013-02-14 03:55:00,34.5,29.1,29.52,SW,216,12.8,-999.0,79,0.00,,,0.00,SSEC-RIG,2013-02-14 09:55:00,
2013-02-14 04:00:00,34.5,29.0,29.52,SW,217,14.0,17.0,79,0.00,,,0.00,SSEC-RIG,2013-02-14 10:00:00,
2013-02-14 04:05:00,34.6,28.9,29.52,SW,214,14.3,16.1,79,0.00,,,0.00,SSEC-RIG,2013-02-14 10:05:00,
2013-02-14 04:10:00,34.4,28.9,29.51,SSW,213,15.1,17.5,79,0.00,,,0.00,SSEC-RIG,2013-02-14 10:10:00,
2013-02-14 04:20:00,34.3,28.8,29.51,SW,219,14.3,17.4,79,0.00,,,0.00,SSEC-RIG,2013-02-14 10:20:00,
2013-02-14 04:25:00,34.2,28.7,29.51,SW,220,13.5,17.5,79,0.00,,,0.00,SSEC-RIG,2013-02-14 10:25:00,
2013-02-14 04:35:00,33.9,28.6,29.51,SW,224,13.5,16.2,80,0.00,,,0.00,SSEC-RIG,2013-02-14 10:35:00,
2013-02-14 04:45:00,33.7,28.5,29.51,SW,225,14.5,17.0,80,0.00,,,0.00,SSEC-RIG,2013-02-14 10:45:00,
2013-02-14 04:50:00,33.6,28.4,29.51,SW,227,13.1,-999.0,80,0.00,,,0.00,SSEC-RIG,2013-02-14 10:50:00,
2013-02-14 05:00:00,33.5,28.3,29.51,SW,233,12.9,-999.0,80,0.00,,,0.00,SSEC-RIG,2013-02-14 11:00:00,
2013-02-14 05:05:00,33.5,28.3,29.51,SW,233,13.3,16.1,80,0.00,,,0.00,SSEC-RIG,2013-02-14 11:05:00,
2013-02-14 05:10:00,33.3,28.3,29.51,SW,235,14.2,16.7,80,0.00,,,0.00,SSEC-RIG,2013-02-14 11:10:00,
2013-02-14 05:20:00,33.2,28.2,29.51,WSW,243,15.1,18.1,80,0.00,,,0.00,SSEC-RIG,2013-02-14 11:20:00,
2013-02-14 05:25:00,33.2,28.2,29.51,WSW,244,14.6,19.1,81,0.00,,,0.00,SSEC-RIG,2013-02-14 11:25:00,
2013-02-14 05:30:00,33.2,28.2,29.51,WSW,248,13.6,16.2,81,0.00,,,0.00,SSEC-RIG,2013-02-14 11:30:00,
2013-02-14 05:35:00,33.3,28.3,29.52,WSW,251,13.2,18.7,81,0.00,,,0.00,SSEC-RIG,2013-02-14 11:35:00,
2013-02-14 05:40:00,33.3,28.4,29.52,WSW,252,13.5,17.0,81,0.00,,,0.00,SSEC-RIG,2013-02-14 11:40:00,
2013-02-14 05:50:00,33.3,28.5,29.52,WSW,254,12.6,18.3,81,0.00,,,0.00,SSEC-RIG,2013-02-14 11:50:00,
2013-02-14 06:00:00,33.4,28.6,29.52,West,260,14.9,20.6,81,0.00,,,0.00,SSEC-RIG,2013-02-14 12:00:00,
2013-02-14 06:05:00,33.4,28.8,29.52,WSW,258,13.1,17.5,82,0.00,,,0.00,SSEC-RIG,2013-02-14 12:05:00,
2013-02-14 06:15:00,33.6,29.0,29.52,West,265,12.3,18.6,82,0.00,,,0.00,SSEC-RIG,2013-02-14 12:15:00,
2013-02-14 06:20:00,33.7,29.3,29.52,West,264,13.6,18.5,82,0.00,,,0.00,SSEC-RIG,2013-02-14 12:20:00,
2013-02-14 06:25:00,33.8,29.4,29.52,West,266,13.6,19.5,83,0.00,,,0.00,SSEC-RIG,2013-02-14 12:25:00,
2013-02-14 06:30:00,33.9,29.5,29.53,West,266,13.0,17.8,83,0.00,,,0.00,SSEC-RIG,2013-02-14 12:30:00,
2013-02-14 06:35:00,33.9,29.6,29.53,West,260,11.2,16.0,83,0.00,,,0.00,SSEC-RIG,2013-02-14 12:35:00,
2013-02-14 06:40:00,33.9,29.8,29.53,West,262,13.5,18.5,83,0.00,,,0.00,SSEC-RIG,2013-02-14 12:40:00,
2013-02-14 06:45:00,33.9,30.0,29.53,West,268,13.3,17.8,84,0.00,,,0.00,SSEC-RIG,2013-02-14 12:45:00,
2013-02-14 06:50:00,34.0,30.1,29.53,West,268,9.1,16.1,85,0.00,,,0.00,SSEC-RIG,2013-02-14 12:50:00,
2013-02-14 06:55:00,34.1,30.2,29.53,West,268,11.9,18.1,84,0.00,,,0.00,SSEC-RIG,2013-02-14 12:55:00,
2013-02-14 07:00:00,34.2,30.2,29.54,West,268,10.8,16.5,84,0.00,,,0.00,SSEC-RIG,2013-02-14 13:00:00,
2013-02-14 07:05:00,34.3,30.4,29.54,West,268,11.7,16.4,84,0.00,,,0.00,SSEC-RIG,2013-02-14 13:05:00,
2013-02-14 07:15:00,34.2,30.8,29.54,West,267,11.6,17.5,86,0.00,,,0.00,SSEC-RIG,2013-02-14 13:15:00,
2013-02-14 07:20:00,34.2,30.9,29.55,West,266,10.3,-999.0,87,0.00,,,0.00,SSEC-RIG,2013-02-14 13:20:00,
2013-02-14 07:25:00,34.2,31.0,29.55,West,268,13.8,19.4,87,0.00,,,0.00,SSEC-RIG,2013-02-14 13:25:00,
2013-02-14 07:30:00,34.1,31.2,29.55,West,271,11.4,17.5,88,0.00,,,0.00,SSEC-RIG,2013-02-14 13:30:00,
2013-02-14 07:35:00,34.0,31.3,29.55,West,267,11.1,16.1,89,0.00,,,0.00,SSEC-RIG,2013-02-14 13:35:00,
2013-02-14 07:40:00,34.0,31.5,29.55,West,269,11.9,17.5,89,0.00,,,0.00,SSEC-RIG,2013-02-14 13:40:00,
2013-02-14 07:45:00,33.9,31.6,29.55,West,271,11.9,16.6,90,0.00,,,0.00,SSEC-RIG,2013-02-14 13:45:00,
2013-02-14 07:50:00,34.0,31.6,29.56,West,266,10.1,-999.0,90,0.00,,,0.00,SSEC-RIG,2013-02-14 13:50:00,
2013-02-14 07:55:00,34.0,31.7,29.56,West,268,9.5,-999.0,90,0.00,,,0.00,SSEC-RIG,2013-02-14 13:55:00,
2013-02-14 08:00:00,34.0,31.6,29.56,West,269,9.1,-999.0,90,0.00,,,0.00,SSEC-RIG,2013-02-14 14:00:00,
2013-02-14 08:05:00,34.1,31.6,29.56,West,269,11.5,16.9,89,0.00,,,0.00,SSEC-RIG,2013-02-14 14:05:00,
2013-02-14 08:10:00,34.1,31.6,29.56,West,269,11.4,-999.0,89,0.00,,,0.00,SSEC-RIG,2013-02-14 14:10:00,
2013-02-14 08:15:00,34.2,31.5,29.56,West,270,12.0,19.0,89,0.00,,,0.00,SSEC-RIG,2013-02-14 14:15:00,
2013-02-14 08:20:00,34.3,31.4,29.56,West,275,11.9,16.2,88,0.00,,,0.00,SSEC-RIG,2013-02-14 14:20:00,
2013-02-14 08:25:00,34.3,31.4,29.56,West,270,10.7,-999.0,88,0.00,,,0.00,SSEC-RIG,2013-02-14 14:25:00,
2013-02-14 08:30:00,34.3,31.4,29.57,West,275,10.8,16.1,88,0.00,,,0.00,SSEC-RIG,2013-02-14 14:30:00,
2013-02-14 08:45:00,34.0,31.9,29.57,West,273,13.0,18.6,91,0.00,,,0.00,SSEC-RIG,2013-02-14 14:45:00,
2013-02-14 08:50:00,33.9,32.0,29.57,West,274,13.1,17.9,91,0.00,,,0.00,SSEC-RIG,2013-02-14 14:50:00,
2013-02-14 08:55:00,33.9,32.1,29.57,West,277,12.4,-999.0,92,0.00,,,0.00,SSEC-RIG,2013-02-14 14:55:00,
2013-02-14 09:00:00,33.9,32.2,29.57,West,279,13.4,19.1,93,0.00,,,0.00,SSEC-RIG,2013-02-14 15:00:00,
2013-02-14 09:05:00,33.9,32.2,29.57,West,276,13.2,18.2,93,0.00,,,0.00,SSEC-RIG,2013-02-14 15:05:00,
2013-02-14 09:10:00,33.8,32.2,29.57,WNW,283,13.8,17.7,93,0.01,,,0.01,SSEC-RIG,2013-02-14 15:10:00,
2013-02-14 09:15:00,33.8,32.3,29.57,WNW,287,14.1,19.8,93,0.00,,,0.01,SSEC-RIG,2013-02-14 15:15:00,
2013-02-14 09:20:00,33.9,32.2,29.58,WNW,289,15.4,21.1,92,0.00,,,0.01,SSEC-RIG,2013-02-14 15:20:00,
2013-02-14 09:25:00,33.9,32.1,29.58,WNW,284,15.2,21.4,92,0.00,,,0.01,SSEC-RIG,2013-02-14 15:25:00,
2013-02-14 09:30:00,33.9,32.1,29.58,WNW,289,14.5,19.7,92,0.00,,,0.01,SSEC-RIG,2013-02-14 15:30:00,
2013-02-14 09:35:00,33.7,32.0,29.58,WNW,286,16.3,20.9,92,0.00,,,0.01,SSEC-RIG,2013-02-14 15:35:00,
2013-02-14 09:40:00,33.7,31.9,29.59,WNW,295,17.7,22.9,92,0.00,,,0.01,SSEC-RIG,2013-02-14 15:40:00,
2013-02-14 09:45:00,33.7,31.8,29.59,WNW,302,15.7,20.8,92,0.00,,,0.01,SSEC-RIG,2013-02-14 15:45:00,
2013-02-14 09:50:00,33.5,31.5,29.59,NW,305,19.9,27.1,91,0.00,,,0.01,SSEC-RIG,2013-02-14 15:50:00,
2013-02-14 09:55:00,33.1,31.0,29.60,NW,318,20.9,29.1,91,0.00,,,0.01,SSEC-RIG,2013-02-14 15:55:00,
2013-02-14 10:05:00,32.6,29.5,29.61,NW,323,20.0,27.0,87,0.00,,,0.01,SSEC-RIG,2013-02-14 16:05:00,
2013-02-14 10:10:00,32.5,29.0,29.61,NW,324,16.8,25.8,86,0.00,,,0.01,SSEC-RIG,2013-02-14 16:10:00,
2013-02-14 10:15:00,32.4,28.6,29.61,NNW,332,21.2,30.1,84,0.00,,,0.01,SSEC-RIG,2013-02-14 16:15:00,
2013-02-14 10:20:00,32.3,28.3,29.61,NNW,331,19.9,25.4,84,0.00,,,0.01,SSEC-RIG,2013-02-14 16:20:00,
2013-02-14 10:25:00,32.3,28.2,29.62,NW,326,18.8,27.2,84,0.00,,,0.01,SSEC-RIG,2013-02-14 16:25:00,
2013-02-14 10:30:00,32.2,28.4,29.63,NW,321,18.9,24.6,84,0.00,,,0.01,SSEC-RIG,2013-02-14 16:30:00,
2013-02-14 10:35:00,32.3,27.9,29.63,NW,323,24.0,33.6,83,0.00,,,0.01,SSEC-RIG,2013-02-14 16:35:00,
2013-02-14 10:40:00,32.0,27.3,29.64,NNW,329,20.9,27.8,81,0.00,,,0.01,SSEC-RIG,2013-02-14 16:40:00,
2013-02-14 10:45:00,31.8,27.1,29.64,NNW,328,21.3,29.9,81,0.00,,,0.01,SSEC-RIG,2013-02-14 16:45:00,
2013-02-14 10:50:00,31.7,26.8,29.64,NNW,327,21.0,28.7,81,0.00,,,0.01,SSEC-RIG,2013-02-14 16:50:00,
2013-02-14 10:55:00,31.7,26.5,29.64,NW,324,21.5,31.4,80,0.00,,,0.01,SSEC-RIG,2013-02-14 16:55:00,
2013-02-14 11:00:00,31.5,26.2,29.65,NNW,334,18.7,26.4,79,0.00,,,0.01,SSEC-RIG,2013-02-14 17:00:00,
2013-02-14 11:10:00,31.4,26.0,29.65,NNW,332,20.3,29.1,79,0.00,,,0.01,SSEC-RIG,2013-02-14 17:10:00,
2013-02-14 11:15:00,31.7,25.6,29.65,NNW,335,27.2,34.9,77,0.00,,,0.01,SSEC-RIG,2013-02-14 17:15:00,
2013-02-14 11:20:00,31.6,25.6,29.65,NNW,337,20.8,25.5,77,0.00,,,0.01,SSEC-RIG,2013-02-14 17:20:00,
2013-02-14 11:25:00,31.8,25.5,29.65,NNW,338,22.0,28.9,76,0.00,,,0.01,SSEC-RIG,2013-02-14 17:25:00,
2013-02-14 11:30:00,32.0,25.5,29.66,NNW,334,18.1,27.0,75,0.00,,,0.01,SSEC-RIG,2013-02-14 17:30:00,
2013-02-14 11:35:00,32.4,25.5,29.67,NNW,331,18.3,27.6,75,0.00,,,0.01,SSEC-RIG,2013-02-14 17:35:00,
2013-02-14 11:40:00,32.2,25.1,29.67,NNW,327,17.6,27.6,74,0.00,,,0.01,SSEC-RIG,2013-02-14 17:40:00,
2013-02-14 11:45:00,32.3,24.9,29.67,NNW,333,20.0,29.3,73,0.00,,,0.01,SSEC-RIG,2013-02-14 17:45:00,
2013-02-14 11:50:00,32.2,24.7,29.67,NNW,327,19.0,25.2,72,0.00,,,0.01,SSEC-RIG,2013-02-14 17:50:00,
2013-02-14 11:55:00,32.3,24.6,29.68,NW,322,20.9,28.7,72,0.00,,,0.01,SSEC-RIG,2013-02-14 17:55:00,
2013-02-14 12:00:00,32.4,24.0,29.68,NW,322,22.1,31.7,70,0.00,,,0.01,SSEC-RIG,2013-02-14 18:00:00,
2013-02-14 12:05:00,32.7,23.7,29.68,NW,323,19.8,25.6,68,0.00,,,0.01,SSEC-RIG,2013-02-14 18:05:00,
2013-02-14 12:10:00,32.7,23.8,29.68,NW,318,18.1,23.8,69,0.00,,,0.01,SSEC-RIG,2013-02-14 18:10:00,
2013-02-14 12:15:00,32.6,24.3,29.68,NW,320,17.1,24.3,70,0.00,,,0.01,SSEC-RIG,2013-02-14 18:15:00,
2013-02-14 12:20:00,32.8,24.0,29.68,NW,310,19.0,24.9,69,0.00,,,0.01,SSEC-RIG,2013-02-14 18:20:00,
2013-02-14 12:30:00,33.4,22.9,29.68,NW,314,19.6,26.0,64,0.00,,,0.01,SSEC-RIG,2013-02-14 18:30:00,
2013-02-14 12:35:00,33.5,22.5,29.68,NW,314,20.9,28.6,63,0.00,,,0.01,SSEC-RIG,2013-02-14 18:35:00,
2013-02-14 12:40:00,33.7,21.1,29.69,NW,322,24.9,33.4,59,0.00,,,0.01,SSEC-RIG,2013-02-14 18:40:00,
2013-02-14 12:50:00,33.1,20.8,29.69,NW,324,22.2,30.3,59,0.00,,,0.01,SSEC-RIG,2013-02-14 18:50:00,
2013-02-14 13:00:00,33.1,20.6,29.70,NW,322,22.6,28.8,59,0.00,,,0.01,SSEC-RIG,2013-02-14 19:00:00,
2013-02-14 13:05:00,32.7,20.5,29.71,NW,324,20.5,29.0,59,0.00,,,0.01,SSEC-RIG,2013-02-14 19:05:00,
2013-02-14 13:10:00,32.7,20.3,29.71,NW,323,21.4,28.5,59,0.00,,,0.01,SSEC-RIG,2013-02-14 19:10:00,
2013-02-14 13:15:00,32.7,20.3,29.71,NW,322,20.5,26.5,59,0.00,,,0.01,SSEC-RIG,2013-02-14 19:15:00,
2013-02-14 13:20:00,32.8,19.7,29.72,NW,319,19.3,29.5,57,0.00,,,0.01,SSEC-RIG,2013-02-14 19:20:00,
2013-02-14 13:25:00,32.7,19.8,29.72,NW,321,16.7,26.1,58,0.00,,,0.01,SSEC-RIG,2013-02-14 19:25:00,
2013-02-14 13:30:00,32.8,19.2,29.72,NW,319,20.1,28.3,56,0.00,,,0.01,SSEC-RIG,2013-02-14 19:30:00,
2013-02-14 13:35:00,32.7,19.3,29.72,NW,325,15.4,20.9,56,0.00,,,0.01,SSEC-RIG,2013-02-14 19:35:00,
2013-02-14 13:40:00,32.8,19.2,29.73,NW,321,17.2,25.0,56,0.00,,,0.01,SSEC-RIG,2013-02-14 19:40:00,
2013-02-14 13:45:00,32.8,19.0,29.73,NW,318,19.2,26.7,55,0.00,,,0.01,SSEC-RIG,2013-02-14 19:45:00,
2013-02-14 13:50:00,32.8,19.0,29.73,NW,314,20.8,27.5,56,0.00,,,0.01,SSEC-RIG,2013-02-14 19:50:00,
2013-02-14 13:55:00,32.5,19.0,29.73,NW,316,16.9,23.0,56,0.00,,,0.01,SSEC-RIG,2013-02-14 19:55:00,
2013-02-14 14:00:00,32.5,19.2,29.74,NW,319,15.7,23.3,57,0.00,,,0.01,SSEC-RIG,2013-02-14 20:00:00,
2013-02-14 14:05:00,32.5,19.0,29.74,NW,313,18.1,26.9,56,0.00,,,0.01,SSEC-RIG,2013-02-14 20:05:00,
2013-02-14 14:10:00,32.4,18.6,29.74,NW,318,18.7,25.7,56,0.00,,,0.01,SSEC-RIG,2013-02-14 20:10:00,
2013-02-14 14:15:00,32.3,19.0,29.74,NNW,330,16.4,23.8,57,0.00,,,0.01,SSEC-RIG,2013-02-14 20:15:00,
2013-02-14 14:20:00,32.3,19.4,29.74,NNW,328,15.2,25.4,58,0.00,,,0.01,SSEC-RIG,2013-02-14 20:20:00,
2013-02-14 14:25:00,32.2,18.7,29.74,NW,323,20.5,26.3,56,0.00,,,0.01,SSEC-RIG,2013-02-14 20:25:00,
2013-02-14 14:30:00,32.2,19.1,29.74,NW,323,16.0,22.5,57,0.00,,,0.01,SSEC-RIG,2013-02-14 20:30:00,
2013-02-14 14:35:00,32.2,19.4,29.75,NW,325,15.4,21.9,58,0.00,,,0.01,SSEC-RIG,2013-02-14 20:35:00,
2013-02-14 14:40:00,32.2,19.4,29.75,NW,323,16.1,23.8,58,0.00,,,0.01,SSEC-RIG,2013-02-14 20:40:00,
2013-02-14 14:45:00,32.2,19.4,29.75,NW,326,15.2,22.9,58,0.00,,,0.01,SSEC-RIG,2013-02-14 20:45:00,
2013-02-14 14:50:00,32.3,19.7,29.76,NNW,329,12.9,18.8,58,0.00,,,0.01,SSEC-RIG,2013-02-14 20:50:00,
2013-02-14 14:55:00,32.2,19.9,29.76,NNW,329,14.6,20.1,59,0.00,,,0.01,SSEC-RIG,2013-02-14 20:55:00,
2013-02-14 15:00:00,32.2,19.4,29.76,NW,320,18.6,23.8,58,0.00,,,0.01,SSEC-RIG,2013-02-14 21:00:00,
2013-02-14 15:05:00,32.2,18.9,29.76,NW,319,21.2,28.5,56,0.00,,,0.01,SSEC-RIG,2013-02-14 21:05:00,
2013-02-14 15:10:00,32.5,18.3,29.77,NW,318,18.2,26.3,54,0.00,,,0.01,SSEC-RIG,2013-02-14 21:10:00,
2013-02-14 15:15:00,32.4,18.3,29.77,NW,318,17.4,24.1,55,0.00,,,0.01,SSEC-RIG,2013-02-14 21:15:00,
2013-02-14 15:25:00,32.4,18.2,29.78,NW,319,18.2,25.9,54,0.00,,,0.01,SSEC-RIG,2013-02-14 21:25:00,
2013-02-14 15:30:00,32.4,18.1,29.78,NW,313,17.8,27.8,54,0.00,,,0.01,SSEC-RIG,2013-02-14 21:30:00,
2013-02-14 15:35:00,32.5,17.8,29.78,NW,316,18.5,26.8,53,0.00,,,0.01,SSEC-RIG,2013-02-14 21:35:00,
2013-02-14 15:40:00,32.6,17.7,29.78,NW,318,22.0,31.1,53,0.00,,,0.01,SSEC-RIG,2013-02-14 21:40:00,
2013-02-14 15:45:00,32.4,17.8,29.79,NW,320,19.3,25.2,53,0.00,,,0.01,SSEC-RIG,2013-02-14 21:45:00,
2013-02-14 15:50:00,32.3,17.9,29.79,NW,319,18.4,23.2,54,0.00,,,0.01,SSEC-RIG,2013-02-14 21:50:00,
2013-02-14 15:55:00,32.4,18.0,29.79,NW,319,19.1,29.2,54,0.00,,,0.01,SSEC-RIG,2013-02-14 21:55:00,
2013-02-14 16:00:00,32.5,18.0,29.79,NW,318,17.1,23.0,54,0.00,,,0.01,SSEC-RIG,2013-02-14 22:00:00,
2013-02-14 16:05:00,32.5,18.1,29.80,NW,315,18.9,25.0,54,0.00,,,0.01,SSEC-RIG,2013-02-14 22:05:00,
2013-02-14 16:10:00,32.5,18.1,29.80,NW,318,17.8,26.9,54,0.00,,,0.01,SSEC-RIG,2013-02-14 22:10:00,
2013-02-14 16:20:00,32.5,18.7,29.81,NW,319,16.4,28.7,55,0.00,,,0.01,SSEC-RIG,2013-02-14 22:20:00,
2013-02-14 16:25:00,32.4,18.3,29.81,NW,318,16.4,22.4,55,0.00,,,0.01,SSEC-RIG,2013-02-14 22:25:00,
2013-02-14 16:35:00,32.2,17.8,29.82,NW,324,18.8,23.3,54,0.00,,,0.01,SSEC-RIG,2013-02-14 22:35:00,
2013-02-14 16:40:00,32.2,17.4,29.82,NW,322,20.6,26.8,53,0.00,,,0.01,SSEC-RIG,2013-02-14 22:40:00,
2013-02-14 16:45:00,32.2,17.6,29.82,NW,320,18.3,23.6,54,0.00,,,0.01,SSEC-RIG,2013-02-14 22:45:00,
2013-02-14 16:50:00,32.1,17.7,29.83,NW,321,17.9,23.1,54,0.00,,,0.01,SSEC-RIG,2013-02-14 22:50:00,
2013-02-14 16:55:00,32.1,18.1,29.83,NW,326,14.2,21.4,55,0.00,,,0.01,SSEC-RIG,2013-02-14 22:55:00,
2013-02-14 17:05:00,32.1,18.1,29.83,NNW,332,13.1,19.4,55,0.00,,,0.01,SSEC-RIG,2013-02-14 23:05:00,
2013-02-14 17:10:00,32.1,18.3,29.83,NNW,331,11.6,16.2,55,0.00,,,0.01,SSEC-RIG,2013-02-14 23:10:00,
2013-02-14 17:15:00,31.9,18.2,29.84,NNW,332,13.5,20.4,55,0.00,,,0.01,SSEC-RIG,2013-02-14 23:15:00,
2013-02-14 17:20:00,31.8,18.2,29.84,NW,325,14.3,18.8,56,0.00,,,0.01,SSEC-RIG,2013-02-14 23:20:00,
2013-02-14 17:25:00,31.8,18.3,29.84,NW,323,11.8,18.2,56,0.00,,,0.01,SSEC-RIG,2013-02-14 23:25:00,
2013-02-14 17:30:00,31.8,18.6,29.85,NW,322,9.6,-999.0,57,0.00,,,0.01,SSEC-RIG,2013-02-14 23:30:00,
2013-02-14 17:35:00,31.8,18.7,29.85,NW,321,10.3,-999.0,57,0.00,,,0.01,SSEC-RIG,2013-02-14 23:35:00,
2013-02-14 17:40:00,31.7,18.4,29.85,NW,325,12.3,17.8,57,0.00,,,0.01,SSEC-RIG,2013-02-14 23:40:00,
2013-02-14 17:45:00,31.7,18.7,29.85,NW,326,10.7,-999.0,57,0.00,,,0.01,SSEC-RIG,2013-02-14 23:45:00,
2013-02-14 17:50:00,31.7,18.7,29.85,NW,323,9.2,-999.0,57,0.00,,,0.01,SSEC-RIG,2013-02-14 23:50:00,
2013-02-14 17:55:00,31.5,18.6,29.86,NW,321,11.3,-999.0,57,0.00,,,0.01,SSEC-RIG,2013-02-14 23:55:00,
2013-02-14 18:00:00,31.5,18.2,29.86,NW,321,12.1,16.3,57,0.00,,,0.01,SSEC-RIG,2013-02-15 00:00:00,
2013-02-14 18:05:00,31.4,18.3,29.86,NW,320,12.3,-999.0,57,0.00,,,0.00,SSEC-RIG,2013-02-15 00:05:00,
2013-02-14 18:10:00,31.4,18.1,29.86,NW,324,11.4,16.5,57,0.00,,,0.00,SSEC-RIG,2013-02-15 00:10:00,
2013-02-14 18:15:00,31.3,18.1,29.87,NW,322,11.2,-999.0,57,0.00,,,0.00,SSEC-RIG,2013-02-15 00:15:00,
2013-02-14 18:20:00,31.3,18.0,29.87,NW,324,9.6,-999.0,56,0.00,,,0.00,SSEC-RIG,2013-02-15 00:20:00,
2013-02-14 18:25:00,31.3,17.9,29.87,NNW,327,10.6,-999.0,56,0.00,,,0.00,SSEC-RIG,2013-02-15 00:25:00,
2013-02-14 18:30:00,31.3,17.9,29.87,NW,323,8.8,-999.0,56,0.00,,,0.00,SSEC-RIG,2013-02-15 00:30:00,
2013-02-14 18:35:00,31.2,17.9,29.87,NNW,331,9.4,-999.0,56,0.00,,,0.00,SSEC-RIG,2013-02-15 00:35:00,
2013-02-14 18:40:00,31.2,17.8,29.88,NNW,328,9.4,-999.0,56,0.00,,,0.00,SSEC-RIG,2013-02-15 00:40:00,
2013-02-14 18:45:00,31.3,18.0,29.88,NW,324,9.1,-999.0,56,0.00,,,0.00,SSEC-RIG,2013-02-15 00:45:00,
2013-02-14 18:50:00,31.1,17.9,29.88,NW,319,10.7,-999.0,57,0.00,,,0.00,SSEC-RIG,2013-02-15 00:50:00,
2013-02-14 18:55:00,31.1,17.9,29.88,NW,320,10.6,-999.0,57,0.00,,,0.00,SSEC-RIG,2013-02-15 00:55:00,
2013-02-14 19:00:00,31.1,17.9,29.88,NW,314,10.2,-999.0,57,0.00,,,0.00,SSEC-RIG,2013-02-15 01:00:00,
2013-02-14 19:05:00,31.2,17.9,29.89,NW,313,9.7,-999.0,57,0.00,,,0.00,SSEC-RIG,2013-02-15 01:05:00,
2013-02-14 19:10:00,31.2,18.1,29.89,NW,317,9.4,-999.0,57,0.00,,,0.00,SSEC-RIG,2013-02-15 01:10:00,
2013-02-14 19:15:00,31.0,18.1,29.89,NW,317,9.6,-999.0,57,0.00,,,0.00,SSEC-RIG,2013-02-15 01:15:00,
2013-02-14 19:20:00,31.0,18.1,29.89,NW,316,9.0,-999.0,57,0.00,,,0.00,SSEC-RIG,2013-02-15 01:20:00,
2013-02-14 19:25:00,31.0,18.0,29.89,NW,311,9.3,-999.0,57,0.00,,,0.00,SSEC-RIG,2013-02-15 01:25:00,
2013-02-14 19:30:00,31.0,18.1,29.89,NW,310,9.2,-999.0,57,0.00,,,0.00,SSEC-RIG,2013-02-15 01:30:00,
2013-02-14 19:35:00,31.0,18.2,29.89,NW,305,8.7,-999.0,58,0.00,,,0.00,SSEC-RIG,2013-02-15 01:35:00,
2013-02-14 19:40:00,31.0,18.2,29.89,WNW,303,8.7,-999.0,58,0.00,,,0.00,SSEC-RIG,2013-02-15 01:40:00,
2013-02-14 19:45:00,30.9,17.9,29.89,NW,305,9.4,-999.0,57,0.00,,,0.00,SSEC-RIG,2013-02-15 01:45:00,
2013-02-14 19:50:00,30.9,17.8,29.89,NW,308,9.4,-999.0,57,0.00,,,0.00,SSEC-RIG,2013-02-15 01:50:00,
2013-02-14 19:55:00,31.0,17.8,29.89,NW,308,7.6,-999.0,57,0.00,,,0.00,SSEC-RIG,2013-02-15 01:55:00,
2013-02-14 20:00:00,30.9,17.7,29.89,NW,311,8.0,-999.0,57,0.00,,,0.00,SSEC-RIG,2013-02-15 02:00:00,
2013-02-14 20:05:00,30.9,17.7,29.89,NW,307,8.6,-999.0,57,0.00,,,0.00,SSEC-RIG,2013-02-15 02:05:00,
2013-02-14 20:15:00,30.9,17.6,29.89,NW,310,8.2,-999.0,56,0.00,,,0.00,SSEC-RIG,2013-02-15 02:15:00,
2013-02-14 20:20:00,30.9,17.5,29.89,NW,307,9.6,-999.0,56,0.00,,,0.00,SSEC-RIG,2013-02-15 02:20:00,
2013-02-14 20:25:00,30.9,17.3,29.89,NW,304,10.5,-999.0,56,0.00,,,0.00,SSEC-RIG,2013-02-15 02:25:00,
2013-02-14 20:30:00,30.8,17.2,29.90,NW,304,11.2,-999.0,56,0.00,,,0.00,SSEC-RIG,2013-02-15 02:30:00,
2013-02-14 20:35:00,30.8,17.0,29.90,NW,304,12.1,-999.0,55,0.00,,,0.00,SSEC-RIG,2013-02-15 02:35:00,
2013-02-14 20:40:00,30.7,17.1,29.90,NW,305,11.2,-999.0,56,0.00,,,0.00,SSEC-RIG,2013-02-15 02:40:00,
2013-02-14 20:45:00,30.7,17.1,29.90,NW,307,9.9,-999.0,56,0.00,,,0.00,SSEC-RIG,2013-02-15 02:45:00,
2013-02-14 20:50:00,30.7,17.3,29.90,NW,308,8.9,-999.0,56,0.00,,,0.00,SSEC-RIG,2013-02-15 02:50:00,
2013-02-14 20:55:00,30.5,17.2,29.90,NW,312,9.4,-999.0,56,0.00,,,0.00,SSEC-RIG,2013-02-15 02:55:00,
2013-02-14 21:00:00,30.4,17.2,29.90,NW,311,9.8,-999.0,57,0.00,,,0.00,SSEC-RIG,2013-02-15 03:00:00,
2013-02-14 21:05:00,30.2,17.2,29.90,NW,318,10.6,-999.0,57,0.00,,,0.00,SSEC-RIG,2013-02-15 03:05:00,
2013-02-14 21:10:00,30.1,17.3,29.90,NW,319,10.8,-999.0,58,0.00,,,0.00,SSEC-RIG,2013-02-15 03:10:00,
2013-02-14 21:15:00,30.0,17.4,29.90,NW,316,10.2,-999.0,58,0.00,,,0.00,SSEC-RIG,2013-02-15 03:15:00,
2013-02-14 21:20:00,30.0,17.5,29.91,NW,314,10.0,-999.0,58,0.00,,,0.00,SSEC-RIG,2013-02-15 03:20:00,
2013-02-14 21:25:00,30.0,17.5,29.91,NW,308,8.4,-999.0,58,0.00,,,0.00,SSEC-RIG,2013-02-15 03:25:00,
2013-02-14 21:30:00,30.0,17.4,29.91,NW,319,9.0,-999.0,58,0.00,,,0.00,SSEC-RIG,2013-02-15 03:30:00,
2013-02-14 21:35:00,30.0,17.8,29.91,NW,323,7.8,-999.0,59,0.00,,,0.00,SSEC-RIG,2013-02-15 03:35:00,
2013-02-14 21:40:00,29.8,17.7,29.91,NW,313,9.4,-999.0,59,0.00,,,0.00,SSEC-RIG,2013-02-15 03:40:00,
2013-02-14 21:50:00,29.7,18.9,29.91,NW,313,12.2,16.8,63,0.00,,,0.00,SSEC-RIG,2013-02-15 03:50:00,
2013-02-14 21:55:00,29.6,19.4,29.91,NW,313,11.1,-999.0,64,0.00,,,0.00,SSEC-RIG,2013-02-15 03:55:00,
2013-02-14 22:00:00,29.4,19.8,29.91,NW,318,11.3,-999.0,66,0.00,,,0.00,SSEC-RIG,2013-02-15 04:00:00,
2013-02-14 22:05:00,29.4,20.0,29.92,NW,324,10.1,-999.0,67,0.00,,,0.00,SSEC-RIG,2013-02-15 04:05:00,
2013-02-14 22:10:00,29.2,19.7,29.92,NNW,338,14.8,19.0,66,0.00,,,0.00,SSEC-RIG,2013-02-15 04:10:00,
2013-02-14 22:15:00,28.3,20.3,29.92,NNW,344,18.8,23.0,71,0.00,,,0.00,SSEC-RIG,2013-02-15 04:15:00,
2013-02-14 22:20:00,27.6,20.6,29.92,NNW,340,16.4,19.9,74,0.00,,,0.00,SSEC-RIG,2013-02-15 04:20:00,
2013-02-14 22:25:00,27.6,20.1,29.92,NNW,338,16.0,22.2,72,0.00,,,0.00,SSEC-RIG,2013-02-15 04:25:00,
2013-02-14 22:30:00,27.7,20.1,29.92,NNW,335,12.1,17.1,72,0.00,,,0.00,SSEC-RIG,2013-02-15 04:30:00,
2013-02-14 22:35:00,27.7,20.3,29.93,NNW,336,10.9,-999.0,73,0.00,,,0.00,SSEC-RIG,2013-02-15 04:35:00,
2013-02-14 22:40:00,27.7,20.5,29.93,NNW,328,8.5,-999.0,73,0.00,,,0.00,SSEC-RIG,2013-02-15 04:40:00,
2013-02-14 22:45:00,27.8,20.8,29.93,NNW,327,8.2,-999.0,74,0.00,,,0.00,SSEC-RIG,2013-02-15 04:45:00,
2013-02-14 22:50:00,27.6,21.1,29.93,NW,317,10.2,-999.0,75,0.00,,,0.00,SSEC-RIG,2013-02-15 04:50:00,
2013-02-14 22:55:00,27.6,21.0,29.93,NNW,328,10.1,-999.0,75,0.00,,,0.00,SSEC-RIG,2013-02-15 04:55:00,
2013-02-14 23:05:00,27.7,20.4,29.93,NW,325,10.7,-999.0,73,0.00,,,0.00,SSEC-RIG,2013-02-15 05:05:00,
2013-02-14 23:10:00,27.8,20.0,29.93,NNW,330,11.3,-999.0,71,0.00,,,0.00,SSEC-RIG,2013-02-15 05:10:00,
2013-02-14 23:15:00,27.8,19.6,29.93,NNW,333,10.9,-999.0,70,0.00,,,0.00,SSEC-RIG,2013-02-15 05:15:00,
2013-02-14 23:20:00,27.8,19.4,29.93,NNW,339,13.7,17.6,69,0.00,,,0.00,SSEC-RIG,2013-02-15 05:20:00,
2013-02-14 23:25:00,27.6,19.5,29.93,NNW,343,13.4,16.1,70,0.00,,,0.00,SSEC-RIG,2013-02-15 05:25:00,
2013-02-14 23:30:00,27.6,20.0,29.93,NNW,348,13.2,17.6,72,0.00,,,0.00,SSEC-RIG,2013-02-15 05:30:00,
2013-02-14 23:35:00,27.3,20.5,29.94,North,357,16.1,19.6,74,0.00,,,0.00,SSEC-RIG,2013-02-15 05:35:00,
2013-02-14 23:40:00,26.6,21.2,29.94,North,6,17.7,22.3,79,0.00,,,0.00,SSEC-RIG,2013-02-15 05:40:00,
2013-02-14 23:45:00,26.2,21.3,29.94,North,5,18.5,21.6,80,0.00,,,0.00,SSEC-RIG,2013-02-15 05:45:00,
2013-02-14 23:50:00,26.1,20.6,29.94,North,2,18.3,21.7,78,0.00,,,0.00,SSEC-RIG,2013-02-15 05:50:00,
2013-02-14 23:55:00,25.9,19.6,29.95,North,0,18.0,21.8,75,0.00,,,0.00,SSEC-RIG,2013-02-15 05:55:00,